This is the latest recevied weather packets stored in our database for station/object F5OZP-13. If no packets are shown the sender has not sent any weather packets the latest 10 day(s).
| Time | Temp. | Humidity | Pressure | Rain* | Wind** | Luminosity | Snow |
|---|---|---|---|---|---|---|---|
| 1777540140 | 21.67° C | 99% | 1017.2 hPa | - | - | 25 W/m² | - |
| 1777539840 | 20.56° C | 99% | 1017.2 hPa | - | - | 0 W/m² | - |
| 1777539523 | 21.11° C | 99% | 1017.2 hPa | - | - | 0 W/m² | - |
| 1777539215 | 21.67° C | 99% | 1017.2 hPa | - | - | 0 W/m² | - |
| 1777538907 | 22.78° C | 99% | 1017.1 hPa | - | - | 0 W/m² | - |
| 1777538599 | 22.78° C | 99% | 1017 hPa | - | - | 0 W/m² | - |
| 1777538291 | 23.33° C | 99% | 1016.9 hPa | - | - | 2 W/m² | - |
| 1777537991 | 23.33° C | 99% | 1017 hPa | - | - | 0 W/m² | - |
| 1777537680 | 23.89° C | 99% | 1016.8 hPa | - | - | 6 W/m² | - |
| 1777537366 | 25° C | 99% | 1016.8 hPa | - | - | 8 W/m² | - |
| 1777537058 | 25° C | 99% | 1016.8 hPa | - | - | 6 W/m² | - |
| 1777536750 | 24.44° C | 99% | 1016.6 hPa | - | - | 0 W/m² | - |
| 1777536446 | 23.89° C | 99% | 1016.6 hPa | - | - | 3 W/m² | - |
| 1777536146 | 22.78° C | 99% | 1016.6 hPa | - | - | 0 W/m² | - |
| 1777535830 | 21.67° C | 99% | 1016.4 hPa | - | - | 0 W/m² | - |
| 1777535522 | 21.67° C | 99% | 1016.4 hPa | - | - | 0 W/m² | - |
| 1777535214 | 21.11° C | 99% | 1016.4 hPa | - | - | 0 W/m² | - |
| 1777534905 | 20.56° C | 99% | 1016.4 hPa | - | - | 0 W/m² | - |
| 1777534597 | 21.11° C | 99% | 1016.3 hPa | - | - | 0 W/m² | - |
| 1777534297 | 21.11° C | 99% | 1016.3 hPa | - | - | 0 W/m² | - |
| 1777533980 | 20.56° C | 99% | 1016.1 hPa | - | - | 0 W/m² | - |
| 1777533672 | 20.56° C | 99% | 1016.1 hPa | - | - | 1 W/m² | - |
| 1777533364 | 19.44° C | 99% | 1016.1 hPa | - | - | 1 W/m² | - |
| 1777533056 | 19.44° C | 99% | 1016 hPa | - | - | 1 W/m² | - |
| 1777532752 | 19.44° C | 99% | 1015.8 hPa | - | - | 0 W/m² | - |
* Rain since midnight (hover to see other rain measurements)
** Current wind speed in m/s (hover to see current wind gust speed)